Regional Weather Roundup
Issued by NWS

Home | Current Version | Previous Version | Graphics & Text | Print | Product List | Glossary Off
Versions: 1 2 3 4 5 6 7 8 9 10 11 12 13 14 15 16 17 18 19 20 21 22 23 24 25 26 27 28 29 30 31 32 33 34 35 36 37 38 39 40 41 42 43 44 45 46 47 48 49 50

000
ASUS43 KDMX 232101
RWRIA

WEATHER ROUNDUP FOR IOWA
NATIONAL WEATHER SERVICE DES MOINES IA
300 PM CST FRI FEB 23 2018

NOTE: "FAIR" INDICATES FEW OR NO CLOUDS BELOW 12,000 FEET WITH NO
SIGNIFICANT WEATHER AND/OR OBSTRUCTIONS TO VISIBILITY.

* - THESE STATIONS ARE NOT NWS STATIONS...THUS NOT UNDER NWS
QUALITY CONTROL.  THEY ALSO DO NOT REPORT WEATHER SUCH
AS PRECIPITATION OR FOG.

IAZ001>003-012>014-020>022-031>034-043>046-232200-
   NORTHWEST IOWA

CITY           SKY/WX    TMP DP  RH WIND       PRES   REMARKS
CARROLL *      MOSUNNY   25  23  93 NW10      30.28R WCI  15
CHEROKEE *     CLOUDY    22  20  91 W9        30.30S WCI  12
DENISON *      PTSUNNY   25  21  86 NW9       30.30S WCI  15
LE MARS *      CLOUDY    23  19  86 W9        30.31S WCI  13
ORANGE CITY *  CLOUDY    23  21  93 W8        30.28S WCI  14
SHELDON *      CLOUDY    25  21  86 W8        30.26R WCI  16
SIOUX CITY     CLOUDY    22  18  85 NW10      30.32F WCI  11
SPENCER        CLOUDY    23  19  85 W10       30.27S WCI  12
STORM LAKE *   CLOUDY    19  18  93 NW15      30.26F WCI   5
$$

IAZ055>058-069>071-079>083-090>094-232200-
   SOUTHWEST IOWA

CITY           SKY/WX    TMP DP  RH WIND       PRES   REMARKS
ATLANTIC *     PTSUNNY   28  25  86 VRB5      30.29S WCI  23
AUDUBON *      PTSUNNY   27  23  86 CALM      30.28S
CLARINDA *     MOSUNNY   36  30  80 N6G13     30.30F WCI  31
COUNCIL BLFS * MOSUNNY   27  27 100 N7        30.29R WCI  19
CRESTON *      PTSUNNY   34  28  80 NW8       30.27F WCI  27
HARLAN  *      PTSUNNY   27  27 100 N12       30.32S WCI  16
LAMONI         CLOUDY    37  29  72 N9        30.25F WCI  30
RED OAK *      MOSUNNY   32  27  80 NW8       30.29F WCI  25
SHENANDOAH *   PTSUNNY   36  30  80 NW8       30.29F WCI  29
$$

IAZ047>049-059>061-072>074-084-232200-
   CENTRAL IOWA

CITY           SKY/WX    TMP DP  RH WIND       PRES   REMARKS
AMES           CLOUDY    27  22  81 W9        30.28F WCI  18
ANKENY *       PTSUNNY   32  27  80 W10G16    30.30R WCI  24
BOONE *        CLOUDY    27  23  86 MISG      30.26F
CHARITON *     CLOUDY    37  28  70 NW7G13    30.26F WCI  32
DES MOINES     CLOUDY    35  26  69 NW9       30.28R WCI  28
GRINNELL*      CLOUDY    32  28  83 NW12      30.27S WCI  23
KNOXVILLE *    CLOUDY    37  27  65 NW12      30.26R WCI  30
MARSHALLTOWN   CLOUDY    28  24  85 W13       30.27S WCI  17
NEWTON *       CLOUDY    32  28  86 NW12      30.27S WCI  23
PELLA *        CLOUDY    38  29  70 NW12      30.29R WCI  30
PERRY *        PTSUNNY   27  25  91 NW6       30.29F WCI  21
$$

IAZ004>006-015-016-023>025-035-036-232200-
   NORTH CENTRAL IOWA

CITY           SKY/WX    TMP DP  RH WIND       PRES   REMARKS
CLARION *      PTSUNNY   25  27 100 W12       30.26S WCI  14
ESTHERVILLE    PTSUNNY   24  20  84 W10       30.25S WCI  14
FORT DODGE *   CLOUDY    28  21  75 W10       30.28S WCI  19
MASON CITY     PTSUNNY   26  21  81 W15       30.25R WCI  14
FOREST CITY *  FAIR      27  23  86 W10       30.24S WCI  17
WEBSTER CITY * CLOUDY    25  21  86 W8        30.26R WCI  16
IOWA FALLS *   CLOUDY    28  24  86 NW13      30.26F WCI  17
$$

IAZ007>011-017>019-026>030-037>042-050>054-066-232200-
   NORTHEAST IOWA

CITY           SKY/WX    TMP DP  RH WIND       PRES   REMARKS
CEDAR RAPIDS   PTSUNNY   36  27  69 NW16      30.25R WCI  26
CHARLES CITY * FAIR      28  28 100 W12       30.25R WCI  18
CLINTON *      PTSUNNY   38  32  79 W17       30.24R WCI  28
DECORAH *      FAIR      30  25  80 W10       30.21R WCI  21
DUBUQUE        PTSUNNY   32  25  75 W17G24    30.22R WCI  21
MONTICELLO *   CLOUDY    32  27  80 W15       30.23S WCI  22
OELWEIN *      FAIR      30  30 100 W14       30.24S WCI  20
WATERLOO       PTSUNNY   32  25  75 W8        30.25F WCI  25
$$

IAZ064-065-067-068-078-232200-
   EAST CENTRAL IOWA

CITY           SKY/WX    TMP DP  RH WIND       PRES   REMARKS
DAVENPORT      CLOUDY    39  31  72 W10       30.26R WCI  32
IOWA CITY      PTSUNNY   40  29  64 NW12      30.27R WCI  33
MT. PLEASANT * CLOUDY    39  30  70 W10       30.27R WCI  32
MUSCATINE *    PTSUNNY   39  30  70 W10       30.28R WCI  32
QUAD CITIES    FAIR      40  31  70 W12       30.24R WCI  33
$$

IAZ062-063-075>077-085>089-095>099-232200-
   SOUTHEAST IOWA

CITY           SKY/WX    TMP DP  RH WIND       PRES   REMARKS
BURLINGTON     CLOUDY    40  33  76 W7        30.26R
FAIRFIELD *    PTSUNNY   39  30  70 NW9       30.27R WCI  33
FORT MADISON * CLOUDY    39  34  81 W8        30.28R WCI  34
KEOKUK *       CLOUDY    39  34  81 W6        30.27S WCI  35
OSKALOOSA *    FAIR      37  30  76 NW10      30.27R WCI  30
OTTUMWA        MOSUNNY   40  29  64 NW12      30.27R WCI  33
WASHINGTON *   PTSUNNY   37  34  87 W12       30.28R WCI  30
$$

ABBREVIATIONS USED IN REMARKS
   TC - TEMPERATURES IN CELSIUS
  WCI - WIND CHILL INDEX
   HX - HEAT INDEX
  VSB - VISIBILITY
$$





USA.gov is the U.S. government's official web portal to all federal, state and local government web resources and services.